Flag for Germany Weather past 2 weeks in Hückelhoven, North Rhine-Westphalia, Germany

Now
54 °F

Scattered clouds.


Feels Like: 50 °F
Forecast: 48 / 68 °F
Wind: 12 mph from Northeast

Location: Monchengladbach Airport


UV Index: 3 (Moderate)

Visibility: N/A


Pressure: 30.04 "Hg

Humidity: 63%

Dew point: 41 °F

Location of HückelhovenLocation

Historic Weather in Hückelhoven

°F

Hückelhoven temperature yesterday

Maximum temperature yesterday: 55 °F (at 3:50 PM)
Minimum temperature yesterday: 43 °F (at 7:50 AM)
Average temperature yesterday: 51 °F

Past Weeks' High & Low Weather Summary

 TemperatureHumidityPressure
High72 °F (Apr 7, 3:50 PM)100% (Apr 5, 7:50 AM)30.45 "Hg (Apr 5, 7:50 AM)
Low32 °F (Apr 16, 7:50 AM)26% (Apr 17, 4:20 PM)29.77 "Hg (Apr 4, 11:20 AM)
Average55 °F67%30.09 "Hg
* Reported Apr 4 11:20 AM — Apr 19 11:20 AM, Hückelhoven, Weather by CustomWeather, © 2014

Note: Actual official high and low records may vary slightly from our data, if they occured in-between our weather recording intervals... More about our weather records

Advertising

Historic Weather Conditions — Data for Previous 24 hours

 ConditionsComfort  
Time TempWeatherWind HumidityBarometerVisibility
11:20 AM
Apr 19
52 °FScattered clouds.12 mph67%30.07 "HgN/A
10:50 AM50 °FScattered clouds.10 mph71%30.07 "HgN/A
10:20 AM50 °FPassing clouds.10 mph71%30.07 "HgN/A
9:50 AM50 °FPassing clouds.8 mph82%30.07 "HgN/A
9:20 AM48 °FPassing clouds.9 mph87%30.07 "HgN/A
8:50 AM46 °FPassing clouds.7 mph93%30.04 "HgN/A
8:20 AM45 °FPassing clouds.6 mph100%30.04 "HgN/A
7:50 AM41 °FSunny.3 mph100%30.04 "Hg10 mi
8:20 PM
Apr 18
50 °FPassing clouds.14 mph62%29.98 "HgN/A
7:50 PM52 °FPassing clouds.13 mph58%29.98 "HgN/A
7:20 PM52 °FPassing clouds.8 mph58%29.95 "HgN/A
6:50 PM52 °FClear.14 mph58%29.95 "Hg10 mi
6:20 PM54 °FPassing clouds.13 mph54%29.95 "HgN/A
5:50 PM55 °FClear.16 mph55%29.95 "Hg10 mi
5:20 PM54 °FPassing clouds.10 mph51%29.95 "HgN/A
4:50 PM54 °FPassing clouds.13 mph47%29.95 "HgN/A
4:20 PM54 °FPassing clouds.14 mph47%29.98 "HgN/A
3:50 PM55 °FPassing clouds.12 mph41%29.98 "HgN/A
3:20 PM54 °FPassing clouds.14 mph41%29.98 "HgN/A
2:50 PM54 °FPassing clouds.14 mph44%29.98 "HgN/A
2:20 PM52 °FPassing clouds.14 mph50%29.98 "HgN/A
1:50 PM54 °FPassing clouds.12 mph58%29.98 "HgN/A
1:20 PM50 °FPassing clouds.16 mph58%29.98 "HgN/A
12:50 PM54 °FPassing clouds.13 mph54%29.98 "HgN/A
12:20 PM50 °FPartly sunny.14 mph62%29.98 "HgN/A
Weather by CustomWeather, © 2014

See weather overview